#timestamp,LO_Frequency,Hit,StdDev 
1571000415.2,286047002.3,N
1571000435.1,286046998.6,N
1571000436.0,286046998.6,N
1571000455.8,286046995.7,N
1571000475.7,286046996.5,N
1571000495.5,286046996.8,N
1571000515.3,286046997.4,N
1571000535.2,286046999.6,N
1571000555.0,286046998.2,N
1571000555.9,286046998.2,N
1571000575.7,286046998.9,N
1571000595.6,286047000.3,N
1571000615.4,286046999.0,N
1571000635.3,286047001.2,N
1571000655.1,286047000.5,N
1571000656.0,286047000.5,N
1571000675.8,286047000.4,N
1571000695.7,286047000.1,N
1571000715.5,286047001.6,N
1571000735.3,286047000.3,N
1571000755.2,286047001.0,N
1571000775.3,286047000.3,N
1571000795.2,286047002.4,N
1571000815.0,286047000.2,N
1571000815.9,286047000.2,N
1571000835.7,286047002.5,N
1571000855.6,286047002.2,N
1571000875.4,286047000.1,N
1571000895.3,286047004.2,N
1571000915.1,286047002.4,N
1571000935.8,286046998.6,N
1571000955.7,286046997.7,N
1571000975.5,286046997.6,N
1571000995.4,286046998.6,N
1571001015.2,286047000.9,N
1571001035.0,286047000.9,N
1571001035.9,286047000.9,N
1571001055.8,286047002.3,N
1571001075.6,286047002.6,N
1571001095.5,286047001.0,N
1571001115.3,286047001.5,N
1571001135.1,286047001.8,N
1571001155.9,286047002.0,N
1571001175.7,286047001.6,N
1571001195.5,286047003.2,N
1571001215.4,286047005.1,Y
1571001235.2,286047005.3,P
1571001255.1,286047007.5,P
1571001256.0,286047007.5,N
1571001275.8,286047005.2,N
1571001295.6,286047004.8,N
1571001315.5,286047004.9,N
1571001335.3,286047004.6,N
1571001355.2,286047007.4,Y
1571001375.9,286047000.1,P
1571001395.7,286046998.1,N
1571001415.6,286047000.8,N
1571001435.4,286047001.2,N
1571001455.2,286046996.9,N
1571001475.1,286046999.6,N
1571001476.0,286046999.6,N
1571001495.8,286046999.2,N
1571001515.7,286046999.2,N
1571001535.5,286046998.7,N
1571001555.3,286046999.4,N
1571001575.2,286047000.7,N
1571001595.0,286046998.1,N
1571001595.9,286046998.1,N
1571001615.8,286047000.8,N
1571001635.6,286046998.7,N
1571001655.4,286046998.3,N
1571001675.3,286046997.4,N
1571001695.1,286046997.6,N
1571001715.9,286046994.9,N
1571001735.7,286046996.7,N
1571001755.5,286046997.0,N
1571001775.4,286046995.4,N
1571001795.2,286046995.2,N
1571001815.0,286046997.9,N
1571001815.9,286046997.9,N
1571001835.8,286046996.0,N
1571001855.6,286046996.4,N
1571001875.5,286046996.2,N
1571001895.3,286046993.9,N
1571001915.1,286046993.8,Y
1571001935.9,286046995.6,P
1571001955.7,286046997.6,N
1571001975.6,286046997.7,N
1571001995.4,286046997.5,N
1571002015.2,286046997.9,N
1571002035.1,286046994.9,Y
1571002036.0,286046994.9,P
1571002055.8,286047001.2,N
1571002105.7,286046999.0,E
1571002115.6,286046999.0,N
1571002135.4,286046999.4,P
1571002155.2,286046998.9,P
1571002175.1,286046999.3,Y
1571002176.0,286046999.3,P
1571002195.8,286047001.1,P
1571002215.7,286047001.2,N
1571002235.5,286046998.9,N
1571002255.3,286046998.6,N
1571002275.2,286046998.6,N
1571002295.0,286046998.8,N
1571002295.9,286046998.8,N
1571002315.8,286047000.9,N
1571002335.6,286046998.2,N
1571002355.4,286046999.3,N
1571002375.3,286046999.1,N
1571002395.1,286046996.8,Y
1571002415.9,286046999.0,P
1571002435.7,286046998.9,P
1571002455.5,286046999.0,P
1571002475.4,286046998.3,Y
1571002495.2,286046998.6,P
1571002515.0,286047001.0,P
1571002515.9,286047001.0,N
1571002535.8,286047000.6,N
1571002555.6,286046999.1,N
1571002575.5,286046997.2,N
1571002595.3,286046996.6,N
1571002615.1,286047000.7,N
1571002635.9,286047000.8,N
1571002655.7,286046998.4,N
1571002675.5,286046996.9,N
1571002695.4,286046997.4,N
1571002715.2,286046996.1,N
1571002735.1,286046993.6,Y
1571002736.0,286046993.6,P
1571002755.8,286046997.5,N
1571002775.6,286046993.5,N
1571002795.5,286046995.2,N
1571002815.3,286046996.5,N
1571002835.2,286046996.6,N
1571002855.9,286046997.1,N
1571002875.7,286046998.5,N
1571002895.6,286046998.1,N
1571002915.4,286046996.8,N
1571002935.2,286046995.7,N
1571002955.1,286046996.5,N
1571002956.0,286046996.5,N
1571002975.8,286046996.6,N
1571002995.7,286047001.1,N
1571003015.5,286047000.3,N
1571003035.3,286047000.1,N
1571003055.2,286047001.0,N
1571003075.0,286046999.4,N
1571003075.9,286046999.4,N
1571003095.8,286047000.0,N
1571003115.6,286047000.7,N
1571003135.4,286047000.7,N
1571003155.3,286046996.6,N
1571003175.1,286046998.8,N
1571003195.9,286047000.5,N
1571003215.7,286046998.7,N
1571003235.5,286046996.5,N
1571003255.4,286046998.2,N
1571003275.2,286047000.2,N
1571003295.0,286047000.7,N
1571003295.9,286047000.7,N
1571003315.8,286047000.9,N
1571003335.6,286047001.0,N
1571003355.5,286047000.5,N
1571003375.3,286047002.8,N
1571003395.1,286047000.2,N
1571003415.9,286046999.7,N
1571003435.7,286047002.6,N
1571003455.5,286047002.7,N
1571003475.4,286047000.7,N
1571003495.2,286046999.9,N
1571003515.1,286047002.4,N
1571003516.0,286047002.4,N
1571003535.8,286046998.6,N
1571003555.6,286047000.8,N
1571003575.5,286047000.8,N
1571003595.3,286046996.5,N
1571003615.1,286047000.1,N
1571003635.9,286046998.8,N
1571003655.7,286047002.5,N
1571003675.6,286046999.9,N
1571003695.4,286046998.3,N
1571003715.2,286047002.5,N
1571003735.1,286047002.1,N
1571003736.0,286047002.1,N
1571003755.8,286047002.4,N
1571003775.7,286047001.9,N
1571003795.5,286047003.8,N
1571003815.3,286047003.6,N
1571003835.2,286047001.9,N
1571003855.0,286047002.0,N
1571003855.9,286047002.0,N
1571003875.7,286047002.5,N
1571003895.6,286047003.5,N
1571003915.4,286047001.8,N
1571003935.3,286047001.5,N
1571003955.1,286047002.2,N
1571003975.8,286047001.0,N
1571003995.7,286046998.4,N
